This demonstration page uses our WeatherBlox Daily Observations layout. Learn more.

Left ArrowRight Arrow

Hourly Observations for June 20, 2019

Temp ( °F °C ) Dew Point ( °F °C ) Humidity (%) Winds ( mph kmh ) Pressure ( in mb ) Visibility ( mi km ) Precip ( " mm )
12:53 am 00:53 Mostly Cloudy 50 10 41 5 71 71 NW 5 7 29.76 1008 10 16 0.00 0.00
1:53 am 01:53 Clear 43 6.1 40 4.4 89 89 WSW 7 11 29.77 1008 10 16 0.00 0.00
2:53 am 02:53 Clear 42 5.6 40 4.4 92 92 SW 9 15 29.76 1008 10 16 0.00 0.00
3:53 am 03:53 Clear 44 6.7 42 5.6 93 93 SW 8 13 29.75 1008 10 16 0.00 0.00
4:53 am 04:53 Clear 43 6.1 41 5 93 93 NNW 6 9 29.79 1009 10 16 0.00 0.00
5:53 am 05:53 Cloudy 45 7.2 43 6.1 93 93 SW 6 9 29.80 1009 10 16 0.00 0.00
6:53 am 06:53 Cloudy 46 7.8 44 6.7 93 93 Calm 29.78 1009 10 16 0.00 0.00
7:53 am 07:53 Cloudy 50 10 46 7.8 86 86 W 5 7 29.78 1008 10 16 0.00 0.03
8:53 am 08:53 Sunny 53 11.7 41 5 64 64 Calm 29.75 1008 10 16 0.00 0.00
9:53 am 09:53 Cloudy 53 11.7 41 5 64 64 Calm 29.76 1008 10 16 0.00 0.00
10:53 am 10:53 Cloudy 53 11.7 43 6.1 69 69 Calm 29.76 1008 10 16 0.00 0.00
11:53 am 11:53 Cloudy 59 15 42 5.6 54 54 W 6 9 29.73 1007 10 16 0.00 0.00
12:53 pm 12:53 Mostly Sunny 62 16.7 38 3.3 41 41 VRB 3 6 29.71 1006 10 16 0.00 0.00
1:53 pm 13:53 Mostly Cloudy 60 15.6 40 4.4 47 47 E 9 15 29.71 1006 10 16 0.00 0.00
2:53 pm 14:53 Mostly Cloudy with Light Rain 59 15 41 5 51 51 SW 5 7 29.73 1007 10 16 0.00 0.03
3:53 pm 15:53 Partly Cloudy 57 13.9 45 7.2 64 64 WNW 8 13 29.74 1007 10 16 0.03 0.76
4:53 pm 16:53 Sunny 62 16.7 40 4.4 44 44 SW 9 15 29.72 1007 10 16 0.00 0.00
5:53 pm 17:53 Partly Cloudy 63 17.2 38 3.3 40 40 WNW 8 13 29.71 1006 10 16 0.00 0.00
6:53 pm 18:53 Mostly Sunny 62 16.7 40 4.4 44 44 NE 13 20 29.72 1007 10 16 0.00 0.00
7:53 pm 19:53 Sunny 57 13.9 41 5 55 55 E 13 20 29.73 1007 10 16 0.00 0.00
8:53 pm 20:53 Sunny 55 12.8 40 4.4 57 57 E 10 17 29.76 1008 10 16 0.00 0.00
9:53 pm 21:53 Mostly Clear 51 10.6 42 5.6 71 71 E 7 11 29.78 1008 10 16 0.00 0.00
10:53 pm 22:53 Clear 48 8.9 41 5 77 77 ENE 6 9 29.79 1009 10 16 0.00 0.00
11:53 pm 23:53 Clear 45 7.2 41 5 86 86 Calm 29.78 1009 10 16 0.00 0.00

Powered by AerisWeather